Location: Sweet Grass
(48.9965°N, 111.9649°W)
Time: 17:15:49
(UTC+00:00)

DX 1 - Pass Details

Date: 02 April 2023
Orbit: 615 x 625 km, 98.4° (Epoch: 04 June)

Event Time Altitude Azimuth Distance (km) Brightness Sun altitude
Rises 05:34:00 0° 18° (NNE) 2,899 ? -30.4°
Reaches altitude 10° 05:36:15 10° 23° (NNE) 1,988 ? -30.6°
Enters shadow 05:37:13 16° 28° (NNE) 1,613 ? -30.7°
